Location: Unspecified
(0.0000°N, 0.0000°E)
Time: 20:19:47
(UTC+00:00)

deb Kosmos-1275 - Pass Details

Date: 07 March 2026
Orbit: 888 x 1009 km, 83.0° (Epoch: 18 April)

Event Time Altitude Azimuth Distance (km) Brightness Sun altitude
Exits shadow 03:43:37 21° 167° (SSE) 2,108 ? -36.7°
Drops below altitude 10° 03:45:28 10° 170° (S) 2,772 ? -36.2°
Sets 03:48:00 0° 172° (S) 3,714 ? -35.6°
